Weather History for Apalachicola, FL

Change the Weather History Date:

Sunday, December 9, 2012

  Actual Average Record
Temperature  
Mean Temperature 69 °F 56 °F  
Max Temperature 73 °F 67 °F 78 °F (1978)
Min Temperature 64 °F 46 °F 29 °F (2010)
Degree Days  
Heating Degree Days 0    
Month to date heating degree days 16  
Since 1 July heating degree days 219  
Cooling Degree Days 4    
Month to date cooling degree days 4  
Year to date cooling degree days 2762  
Growing Degree Days 18 (Base 50)    
Moisture  
Dew Point 64 °F    
Average Humidity 83    
Maximum Humidity 93    
Minimum Humidity 73    
Precipitation  
Precipitation 0.00 in 0.10 in 4.11 in (1931)
Month to date precipitation T 1.02  
Year to date precipitation 55.63 55.41  
Sea Level Pressure  
Sea Level Pressure 30.05 in    
Wind  
Wind Speed 6 mph (ESE)    
Max Wind Speed 10 mph    
Max Gust Speed 14 mph    
Visibility 9 miles    
Events      
T = Trace of Precipitation, MM = Missing Value Source: NWS Daily Summary

Daily Weather History Graph

Daily Weather History Graph

Search for Another Location

Airport:

Trip Planner

Search our weather history database for the weather conditions in past years. The results will help you decide how hot, cold, wet, or windy it might be!

Date:

Astronomy

Dec. 09, 2012 Rise Set
Actual Time 7:24 AM EST 5:41 PM EST
Civil Twilight 6:57 AM EST 6:07 PM EST
Nautical Twilight 6:28 AM EST 6:37 PM EST
Astronomical Twilight 5:59 AM EST 7:06 PM EST
Moon 3:09 AM EST (12/9) 2:36 PM EST (12/9)
Length of Visible Light 11h 09m
Length of Day
10h 17m
Waning Crescent, 19% of the Moon is Illuminated
Dec 9
Waning Crescent
Dec 13
New
Dec 20
First Quarter
Dec 28
Full
Jan 4
Last Quarter

Hourly Weather History & Observations

Time (EST) Temp. Dew Point Humidity Pressure Visibility Wind Dir Wind Speed Gust Speed Precip Events Conditions
12:41 AM 66.2 °F 64.4 °F 94% 30.04 in 6.0 mi East 5.8 mph - N/A   Overcast
12:53 AM 66.0 °F 64.0 °F 93% 30.04 in 5.0 mi East 4.6 mph - N/A   Overcast
1:19 AM 66.2 °F 64.4 °F 94% 30.03 in 1.5 mi ESE 8.1 mph - N/A   Overcast
1:37 AM 66.2 °F 64.4 °F 94% 30.03 in 3.0 mi East 4.6 mph - N/A   Overcast
1:53 AM 66.0 °F 64.0 °F 93% 30.04 in 4.0 mi ESE 5.8 mph - N/A   Overcast
2:50 AM 66.2 °F 64.4 °F 94% 30.03 in 8.0 mi ESE 5.8 mph - N/A   Overcast
2:53 AM 66.0 °F 64.0 °F 93% 30.03 in 8.0 mi East 8.1 mph - N/A   Overcast
3:01 AM 66.2 °F 64.4 °F 94% 30.03 in 8.0 mi East 5.8 mph - N/A   Overcast
3:26 AM 66.2 °F 64.4 °F 94% 30.02 in 9.0 mi ESE 4.6 mph - N/A   Overcast
3:48 AM 66.2 °F 64.4 °F 94% 30.03 in 8.0 mi ESE 8.1 mph - N/A   Overcast
3:53 AM 66.0 °F 64.0 °F 93% 30.03 in 7.0 mi ESE 5.8 mph - N/A   Overcast
4:53 AM 66.0 °F 64.0 °F 93% 30.03 in 6.0 mi ESE 6.9 mph - N/A   Overcast
5:32 AM 66.2 °F 64.4 °F 94% 30.04 in 10.0 mi East 5.8 mph - N/A   Overcast
5:48 AM 66.2 °F 64.4 °F 94% 30.04 in 10.0 mi East 6.9 mph - N/A   Overcast
5:53 AM 66.0 °F 64.0 °F 93% 30.04 in 10.0 mi East 4.6 mph - N/A   Overcast
6:53 AM 66.2 °F 62.6 °F 88% 30.06 in 10.0 mi East 5.8 mph - N/A   Overcast
7:23 AM 64.4 °F 62.6 °F 94% 30.07 in 9.0 mi East 3.5 mph - N/A   Mostly Cloudy
7:34 AM 64.4 °F 62.6 °F 94% 30.07 in 8.0 mi East 3.5 mph - N/A   Mostly Cloudy
7:53 AM 64.9 °F 63.0 °F 93% 30.08 in 7.0 mi ENE 3.5 mph - N/A   Scattered Clouds
8:06 AM 64.4 °F 62.6 °F 94% 30.08 in 6.0 mi ENE 4.6 mph - N/A   Mostly Cloudy
8:43 AM 66.2 °F 62.6 °F 88% 30.09 in 10.0 mi East 3.5 mph - N/A   Overcast
8:53 AM 66.9 °F 64.0 °F 90% 30.09 in 10.0 mi East 4.6 mph - N/A   Overcast
9:53 AM 69.1 °F 63.0 °F 81% 30.10 in 10.0 mi ESE 6.9 mph - N/A   Mostly Cloudy
10:00 AM 69.8 °F 62.6 °F 78% 30.10 in 10.0 mi ESE 5.8 mph - N/A   Scattered Clouds
10:53 AM 72.0 °F 63.0 °F 73% 30.10 in 10.0 mi SSE 4.6 mph - N/A   Scattered Clouds
11:53 AM 72.0 °F 63.0 °F 73% 30.09 in 10.0 mi SE 6.9 mph - N/A   Clear
12:53 PM 72.0 °F 64.0 °F 76% 30.06 in 10.0 mi SSE 6.9 mph - N/A   Clear
1:53 PM 72.0 °F 64.0 °F 76% 30.04 in 10.0 mi SSE 9.2 mph - N/A   Clear
2:53 PM 72.0 °F 64.9 °F 78% 30.03 in 10.0 mi SSE 10.4 mph - N/A   Clear
3:22 PM 71.6 °F 64.4 °F 78% 30.03 in 10.0 mi SSE 6.9 mph - N/A   Partly Cloudy
3:53 PM 71.1 °F 64.9 °F 81% 30.03 in 10.0 mi South 6.9 mph - N/A   Partly Cloudy
4:45 PM 69.8 °F 64.4 °F 83% 30.02 in 10.0 mi South 5.8 mph - N/A   Mostly Cloudy
4:53 PM 70.0 °F 64.9 °F 84% 30.02 in 10.0 mi SSE 6.9 mph - N/A   Mostly Cloudy
5:37 PM 68.0 °F 64.4 °F 88% 30.02 in 10.0 mi South 5.8 mph - N/A   Scattered Clouds
5:53 PM 66.9 °F 64.0 °F 90% 30.03 in 10.0 mi ESE 3.5 mph - N/A   Partly Cloudy
6:12 PM 66.2 °F 64.4 °F 94% 30.03 in 10.0 mi SSE 4.6 mph - N/A   Mostly Cloudy
6:43 PM 66.2 °F 64.4 °F 94% 30.03 in 10.0 mi Calm Calm - N/A   Scattered Clouds
6:53 PM 66.9 °F 64.0 °F 90% 30.03 in 9.0 mi Calm Calm - N/A   Partly Cloudy
7:53 PM 64.9 °F 63.0 °F 93% 30.04 in 8.0 mi SSE 4.6 mph - N/A   Clear
8:53 PM 66.9 °F 64.9 °F 93% 30.03 in 10.0 mi South 6.9 mph - N/A   Clear
9:53 PM 66.0 °F 64.0 °F 93% 30.03 in 10.0 mi SSE 4.6 mph - N/A   Clear
10:53 PM 66.9 °F 64.0 °F 90% 30.02 in 10.0 mi South 5.8 mph - N/A   Clear
11:53 PM 66.0 °F 64.0 °F 93% 30.01 in 10.0 mi South 3.5 mph - N/A   Clear